VJC334 VVTS-VVDH

Flight info

Callsign VJC334
Flight time 1h 23m
Altitude 35000
Route PATMA5F PATMA Q2 BIGBO W2 KONCO KONCO1R
Aircraft A321/M-SDE3FGHIRWY/LB1

Departure

Time 2026-04-19 03:36
Airport Tan Son Nhat International Airport (VVTS)

Arrival

Time 2026-04-19 04:59
Airport Dong Hoi Airport (VVDH)
Time Latitude Longitude Altitude Speed Heading
2026-04-19 03:17 10.81326 106.66119 39 ft 0 kts 95°
2026-04-19 03:22 10.81327 106.66113 39 ft 4 kts 95°
2026-04-19 03:22 10.81329 106.66086 37 ft 4 kts 94°
2026-04-19 03:23 10.81330 106.66059 40 ft 4 kts 90°
2026-04-19 03:23 10.81330 106.66039 36 ft 2 kts 74°
2026-04-19 03:23 10.81326 106.66028 36 ft 2 kts 43°
2026-04-19 03:23 10.81317 106.66021 39 ft 2 kts 13°
2026-04-19 03:24 10.81306 106.66019 37 ft 2 kts
2026-04-19 03:24 10.81295 106.66018 38 ft 0 kts
2026-04-19 03:27 10.81320 106.66020 38 ft 6 kts
2026-04-19 03:27 10.81357 106.66023 39 ft 5 kts
2026-04-19 03:27 10.81387 106.66026 39 ft 6 kts
2026-04-19 03:28 10.81465 106.66033 39 ft 16 kts
2026-04-19 03:28 10.81592 106.66045 39 ft 18 kts
2026-04-19 03:28 10.81665 106.66052 39 ft 9 kts
2026-04-19 03:28 10.81720 106.66057 39 ft 7 kts
2026-04-19 03:29 10.81763 106.66061 39 ft 6 kts
2026-04-19 03:29 10.81796 106.66064 39 ft 4 kts
2026-04-19 03:29 10.81832 106.66070 39 ft 8 kts 17°
2026-04-19 03:29 10.81875 106.66107 39 ft 8 kts 60°
2026-04-19 03:30 10.81894 106.66155 39 ft 7 kts 69°
2026-04-19 03:30 10.81911 106.66199 38 ft 9 kts 69°
2026-04-19 03:30 10.81944 106.66288 39 ft 15 kts 69°
2026-04-19 03:30 10.81979 106.66381 39 ft 13 kts 69°
2026-04-19 03:31 10.82011 106.66465 39 ft 13 kts 69°
2026-04-19 03:31 10.82041 106.66546 39 ft 12 kts 69°
2026-04-19 03:31 10.82070 106.66621 39 ft 11 kts 69°
2026-04-19 03:31 10.82096 106.66690 37 ft 10 kts 69°
2026-04-19 03:32 10.82122 106.66760 38 ft 11 kts 69°
2026-04-19 03:32 10.82149 106.66831 38 ft 10 kts 69°
2026-04-19 03:32 10.82173 106.66896 38 ft 9 kts 69°
2026-04-19 03:32 10.82195 106.66952 39 ft 8 kts 69°
2026-04-19 03:33 10.82219 106.66995 39 ft 6 kts 43°
2026-04-19 03:33 10.82256 106.67004 39 ft 5 kts 355°
2026-04-19 03:33 10.82285 106.66996 39 ft 4 kts 340°
2026-04-19 03:33 10.82309 106.66983 38 ft 5 kts 325°
2026-04-19 03:34 10.82331 106.66944 37 ft 6 kts 283°
2026-04-19 03:34 10.82338 106.66903 36 ft 6 kts 277°
2026-04-19 03:34 10.82333 106.66853 38 ft 9 kts 255°
2026-04-19 03:34 10.82310 106.66791 37 ft 14 kts 249°
2026-04-19 03:35 10.82203 106.66508 36 ft 76 kts 249°
2026-04-19 03:35 10.81944 106.65820 39 ft 130 kts 249°
2026-04-19 03:35 10.81564 106.64813 41 ft 172 kts 248°
2026-04-19 03:35 10.81128 106.63633 415 ft 177 kts 247°
2026-04-19 03:36 10.80694 106.62454 991 ft 178 kts 245°
2026-04-19 03:36 10.80247 106.61260 1469 ft 186 kts 246°
2026-04-19 03:36 10.79751 106.59954 1670 ft 208 kts 247°
2026-04-19 03:36 10.79201 106.58508 1846 ft 230 kts 246°
2026-04-19 03:37 10.78602 106.56928 1990 ft 255 kts 247°
2026-04-19 03:37 10.77945 106.55186 2483 ft 267 kts 248°
2026-04-19 03:37 10.77300 106.53387 3203 ft 273 kts 255°
2026-04-19 03:37 10.77139 106.51452 3842 ft 278 kts 277°
2026-04-19 03:38 10.77764 106.49591 4503 ft 281 kts 304°
2026-04-19 03:38 10.78196 106.48997 4746 ft 281 kts 316°
2026-04-19 03:38 10.79821 106.47917 5382 ft 280 kts 341°
2026-04-19 03:38 10.81718 106.47550 6027 ft 279 kts
2026-04-19 03:39 10.83582 106.48036 6659 ft 277 kts 30°
2026-04-19 03:39 10.85120 106.49224 7249 ft 279 kts 42°
2026-04-19 03:39 10.86568 106.50512 7849 ft 281 kts 42°
2026-04-19 03:39 10.88050 106.51829 8467 ft 284 kts 42°
2026-04-19 03:40 10.89551 106.53158 9115 ft 287 kts 42°
2026-04-19 03:40 10.91049 106.54482 9747 ft 289 kts 41°
2026-04-19 03:40 10.92586 106.55838 10138 ft 300 kts 41°
2026-04-19 03:40 10.94214 106.57275 10251 ft 318 kts 41°
2026-04-19 03:41 10.95937 106.58794 10371 ft 336 kts 41°
2026-04-19 03:41 10.97758 106.60402 10478 ft 353 kts 41°
2026-04-19 03:41 10.99582 106.62010 10686 ft 365 kts 41°
2026-04-19 03:41 11.01521 106.63720 11112 ft 370 kts 41°
2026-04-19 03:42 11.03482 106.65445 11605 ft 374 kts 41°
2026-04-19 03:42 11.05470 106.67195 12091 ft 378 kts 41°
2026-04-19 03:42 11.07474 106.68961 12587 ft 381 kts 41°
2026-04-19 03:42 11.09474 106.70726 13079 ft 385 kts 41°
2026-04-19 03:43 11.11510 106.72525 13558 ft 389 kts 41°
2026-04-19 03:43 11.13548 106.74327 13978 ft 392 kts 41°
2026-04-19 03:43 11.15624 106.76161 14406 ft 395 kts 41°
2026-04-19 03:43 11.17707 106.78001 14834 ft 397 kts 41°
2026-04-19 03:44 11.19805 106.79856 15257 ft 400 kts 41°
2026-04-19 03:44 11.21892 106.81698 15686 ft 402 kts 41°
2026-04-19 03:44 11.24014 106.83572 16088 ft 404 kts 41°
2026-04-19 03:44 11.26149 106.85459 16481 ft 407 kts 41°
2026-04-19 03:45 11.28275 106.87343 16880 ft 409 kts 41°
2026-04-19 03:45 11.30434 106.89252 17263 ft 412 kts 41°
2026-04-19 03:45 11.32604 106.91169 17675 ft 414 kts 41°
2026-04-19 03:45 11.34795 106.93104 18063 ft 416 kts 41°
2026-04-19 03:46 11.36968 106.95026 18413 ft 418 kts 40°
2026-04-19 03:46 11.39182 106.96985 18747 ft 421 kts 40°
2026-04-19 03:46 11.41399 106.98946 18882 ft 422 kts 40°
2026-04-19 03:46 11.43616 107.00913 18917 ft 421 kts 40°
2026-04-19 03:47 11.45826 107.02875 18926 ft 421 kts 40°
2026-04-19 03:47 11.48037 107.04835 18922 ft 421 kts 40°
2026-04-19 03:47 11.50248 107.06792 18924 ft 421 kts 40°
2026-04-19 03:47 11.52472 107.08762 19133 ft 423 kts 40°
2026-04-19 03:48 11.54675 107.10714 19479 ft 425 kts 40°
2026-04-19 03:48 11.56923 107.12704 19809 ft 427 kts 40°
2026-04-19 03:48 11.59183 107.14706 20128 ft 429 kts 40°
2026-04-19 03:48 11.61417 107.16687 20442 ft 431 kts 40°
2026-04-19 03:49 11.63694 107.18706 20748 ft 433 kts 40°
2026-04-19 03:49 11.65976 107.20731 21069 ft 436 kts 40°
2026-04-19 03:49 11.68185 107.22692 21382 ft 438 kts 40°
2026-04-19 03:49 11.70493 107.24740 21698 ft 440 kts 40°
2026-04-19 03:50 11.72776 107.26769 21997 ft 442 kts 40°
2026-04-19 03:50 11.75104 107.28838 22295 ft 444 kts 40°
2026-04-19 03:50 11.77446 107.30919 22606 ft 446 kts 40°
2026-04-19 03:50 11.79795 107.33006 22911 ft 448 kts 40°
2026-04-19 03:51 11.81707 107.34706 23144 ft 450 kts 40°
2026-04-19 03:51 11.84058 107.36796 23427 ft 452 kts 40°
2026-04-19 03:51 11.85665 107.38225 23601 ft 453 kts 40°
2026-04-19 03:51 11.88152 107.40440 23830 ft 455 kts 40°
2026-04-19 03:52 11.90550 107.42574 24060 ft 457 kts 40°
2026-04-19 03:52 11.92922 107.44685 24294 ft 459 kts 40°
2026-04-19 03:52 11.95343 107.46839 24527 ft 460 kts 40°
2026-04-19 03:52 11.97772 107.49000 24762 ft 462 kts 40°
2026-04-19 03:53 12.00174 107.51136 24992 ft 464 kts 40°
2026-04-19 03:53 12.02612 107.53307 25218 ft 465 kts 40°
2026-04-19 03:53 12.05070 107.55496 25452 ft 467 kts 40°
2026-04-19 03:53 12.07528 107.57685 25689 ft 469 kts 40°
2026-04-19 03:54 12.09984 107.59877 25890 ft 470 kts 40°
2026-04-19 03:54 12.12427 107.62059 26105 ft 472 kts 40°
2026-04-19 03:54 12.14906 107.64272 26312 ft 473 kts 40°
2026-04-19 03:54 12.17398 107.66496 26523 ft 475 kts 40°
2026-04-19 03:55 12.19888 107.68718 26727 ft 476 kts 40°
2026-04-19 03:55 12.22365 107.70927 26936 ft 478 kts 40°
2026-04-19 03:55 12.24875 107.73164 27151 ft 479 kts 39°
2026-04-19 03:55 12.27403 107.75417 27364 ft 481 kts 39°
2026-04-19 03:56 12.30016 107.77558 27573 ft 481 kts 32°
2026-04-19 03:56 12.32920 107.79250 27769 ft 480 kts 23°
2026-04-19 03:56 12.36021 107.80412 27950 ft 479 kts 13°
2026-04-19 03:56 12.39293 107.81038 28216 ft 476 kts
2026-04-19 03:57 12.42607 107.81170 28488 ft 475 kts 359°
2026-04-19 03:57 12.45915 107.81227 28776 ft 474 kts 359°
2026-04-19 03:57 12.49174 107.81289 29062 ft 473 kts 360°
2026-04-19 03:57 12.52472 107.81356 29349 ft 472 kts 360°
2026-04-19 03:58 12.55754 107.81424 29646 ft 471 kts 360°
2026-04-19 03:58 12.59042 107.81494 29933 ft 470 kts 360°
2026-04-19 03:58 12.62282 107.81562 30186 ft 469 kts 359°
2026-04-19 03:58 12.65563 107.81631 30405 ft 469 kts 359°
2026-04-19 03:59 12.68787 107.81700 30641 ft 468 kts 359°
2026-04-19 03:59 12.72052 107.81768 30877 ft 468 kts 359°
2026-04-19 03:59 12.75319 107.81830 31102 ft 468 kts 359°
2026-04-19 03:59 12.78579 107.81888 31332 ft 467 kts 359°
2026-04-19 04:00 12.81832 107.81947 31559 ft 467 kts 359°
2026-04-19 04:00 12.85051 107.82011 31785 ft 467 kts 359°
2026-04-19 04:00 12.88309 107.82078 32017 ft 467 kts 359°
2026-04-19 04:00 12.91569 107.82143 32248 ft 467 kts 359°
2026-04-19 04:01 12.94825 107.82208 32481 ft 467 kts 359°
2026-04-19 04:01 13.01314 107.82339 32948 ft 467 kts 359°
2026-04-19 04:01 13.04576 107.82404 33180 ft 467 kts 359°
2026-04-19 04:02 13.07786 107.82468 33407 ft 467 kts 359°
2026-04-19 04:02 13.11034 107.82531 33646 ft 467 kts 359°
2026-04-19 04:02 13.14290 107.82592 33873 ft 467 kts 359°
2026-04-19 04:02 13.17543 107.82656 34079 ft 467 kts 359°
2026-04-19 04:03 13.19694 107.82699 34185 ft 467 kts 359°
2026-04-19 04:03 13.22950 107.82764 34414 ft 466 kts 359°
2026-04-19 04:03 13.26203 107.82828 34640 ft 466 kts 359°
2026-04-19 04:03 13.29442 107.82893 34862 ft 465 kts 359°
2026-04-19 04:04 13.35896 107.83026 34955 ft 463 kts 359°
2026-04-19 04:04 13.42298 107.83153 34954 ft 462 kts 359°
2026-04-19 04:05 13.48724 107.83283 34957 ft 461 kts 359°
2026-04-19 04:05 13.55131 107.83421 34959 ft 461 kts 359°
2026-04-19 04:06 13.61558 107.83561 34959 ft 461 kts 359°
2026-04-19 04:06 13.67948 107.83699 34964 ft 461 kts 359°
2026-04-19 04:07 13.74372 107.83834 34967 ft 461 kts 359°
2026-04-19 04:07 13.80794 107.83964 34970 ft 461 kts 359°
2026-04-19 04:08 13.87176 107.84095 34971 ft 461 kts 359°
2026-04-19 04:08 13.93608 107.84233 34977 ft 461 kts 359°
2026-04-19 04:09 14.00041 107.84370 34975 ft 461 kts 359°
2026-04-19 04:09 14.06425 107.84430 34977 ft 460 kts 358°
2026-04-19 04:10 14.12835 107.84394 34982 ft 460 kts 358°
2026-04-19 04:10 14.19200 107.84360 34983 ft 460 kts 358°
2026-04-19 04:11 14.25619 107.84354 34977 ft 460 kts 358°
2026-04-19 04:11 14.32021 107.84363 34976 ft 460 kts 358°
2026-04-19 04:12 14.38410 107.84367 34974 ft 459 kts 358°
2026-04-19 04:12 14.44788 107.84361 34976 ft 459 kts 358°
2026-04-19 04:13 14.51167 107.84356 34979 ft 459 kts 358°
2026-04-19 04:13 14.57568 107.84358 34979 ft 459 kts 358°
2026-04-19 04:14 14.63945 107.84364 34978 ft 459 kts 358°
2026-04-19 04:14 14.70328 107.84364 34985 ft 459 kts 358°
2026-04-19 04:15 14.76722 107.84366 34989 ft 459 kts 358°
2026-04-19 04:15 14.83123 107.84359 34997 ft 459 kts 358°
2026-04-19 04:16 14.89487 107.84367 34997 ft 459 kts 359°
2026-04-19 04:16 14.95899 107.84575 35002 ft 460 kts
2026-04-19 04:17 15.02312 107.84891 34998 ft 460 kts
2026-04-19 04:17 15.08663 107.85166 35006 ft 460 kts 360°
2026-04-19 04:18 15.15086 107.85405 34994 ft 460 kts 359°
2026-04-19 04:18 15.21449 107.85635 34996 ft 460 kts 359°
2026-04-19 04:19 15.27860 107.85875 34990 ft 459 kts 359°
2026-04-19 04:19 15.34223 107.86122 34987 ft 459 kts 359°
2026-04-19 04:20 15.40627 107.86369 34980 ft 459 kts 359°
2026-04-19 04:20 15.46982 107.86606 34976 ft 459 kts 359°
2026-04-19 04:21 15.53377 107.86851 34963 ft 459 kts 359°
2026-04-19 04:21 15.59776 107.87095 34958 ft 459 kts 359°
2026-04-19 04:22 15.66141 107.87339 34957 ft 460 kts 359°
2026-04-19 04:22 15.72538 107.87587 34954 ft 459 kts 359°
2026-04-19 04:23 15.78943 107.87826 34950 ft 460 kts 359°
2026-04-19 04:23 15.85306 107.88064 34954 ft 460 kts 359°
2026-04-19 04:24 15.91718 107.88308 34950 ft 459 kts 359°
2026-04-19 04:24 15.97957 107.87513 34948 ft 452 kts 340°
2026-04-19 04:25 16.03709 107.84955 34944 ft 449 kts 332°
2026-04-19 04:25 16.08421 107.82642 34941 ft 449 kts 332°
2026-04-19 04:26 16.14089 107.79864 34928 ft 450 kts 332°
2026-04-19 04:26 16.19722 107.77104 34918 ft 450 kts 332°
2026-04-19 04:27 16.25401 107.74300 34917 ft 450 kts 332°
2026-04-19 04:27 16.31032 107.71515 34914 ft 451 kts 332°
2026-04-19 04:28 16.36709 107.68722 34913 ft 451 kts 332°
2026-04-19 04:28 16.42393 107.65921 34914 ft 451 kts 332°
2026-04-19 04:29 16.48046 107.63055 34913 ft 450 kts 327°
2026-04-19 04:29 16.53008 107.59162 34896 ft 447 kts 318°
2026-04-19 04:30 16.55407 107.57093 34661 ft 447 kts 318°
2026-04-19 04:30 16.57775 107.55054 34440 ft 447 kts 318°
2026-04-19 04:30 16.60183 107.52985 33933 ft 449 kts 318°
2026-04-19 04:30 16.62613 107.50904 33137 ft 452 kts 318°
2026-04-19 04:31 16.65036 107.48832 32438 ft 448 kts 319°
2026-04-19 04:31 16.67454 107.46762 31402 ft 452 kts 319°
2026-04-19 04:31 16.69895 107.44663 30667 ft 455 kts 319°
2026-04-19 04:31 16.72339 107.42555 29957 ft 456 kts 319°
2026-04-19 04:32 16.74762 107.40463 29106 ft 458 kts 319°
2026-04-19 04:32 16.77229 107.38334 28254 ft 460 kts 319°
2026-04-19 04:32 16.79704 107.36200 27400 ft 462 kts 319°
2026-04-19 04:32 16.82197 107.34051 26699 ft 461 kts 319°
2026-04-19 04:33 16.84657 107.31933 26124 ft 456 kts 319°
2026-04-19 04:33 16.87096 107.29838 25526 ft 452 kts 319°
2026-04-19 04:33 16.89522 107.27753 24949 ft 448 kts 319°
2026-04-19 04:33 16.91891 107.25712 24399 ft 444 kts 319°
2026-04-19 04:34 16.94127 107.23779 23877 ft 441 kts 319°
2026-04-19 04:34 16.96485 107.21738 23275 ft 435 kts 319°
2026-04-19 04:34 16.98819 107.19836 22411 ft 418 kts 326°
2026-04-19 04:34 17.01303 107.18404 21362 ft 409 kts 335°
2026-04-19 04:35 17.03968 107.17457 20610 ft 393 kts 343°
2026-04-19 04:35 17.06551 107.16683 19886 ft 379 kts 342°
2026-04-19 04:35 17.09055 107.15904 19044 ft 371 kts 342°
2026-04-19 04:35 17.11511 107.15123 18174 ft 365 kts 342°
2026-04-19 04:36 17.13903 107.14355 17202 ft 361 kts 342°
2026-04-19 04:36 17.16293 107.13588 16270 ft 355 kts 342°
2026-04-19 04:36 17.18647 107.12839 15432 ft 351 kts 342°
2026-04-19 04:36 17.20991 107.12100 15104 ft 352 kts 342°
2026-04-19 04:37 17.23314 107.11370 14956 ft 353 kts 342°
2026-04-19 04:37 17.25642 107.10540 14949 ft 353 kts 336°
2026-04-19 04:37 17.27764 107.09355 14917 ft 337 kts 326°
2026-04-19 04:37 17.29598 107.07878 14740 ft 328 kts 316°
2026-04-19 04:38 17.30824 107.06558 14544 ft 322 kts 311°
2026-04-19 04:38 17.32301 107.04817 14312 ft 316 kts 311°
2026-04-19 04:38 17.33742 107.03127 14090 ft 312 kts 311°
2026-04-19 04:38 17.35190 107.01435 13838 ft 311 kts 311°
2026-04-19 04:39 17.36644 106.99738 13411 ft 311 kts 311°
2026-04-19 04:39 17.38097 106.98042 12979 ft 311 kts 311°
2026-04-19 04:39 17.39526 106.96368 12526 ft 312 kts 311°
2026-04-19 04:39 17.40962 106.94682 12258 ft 307 kts 311°
2026-04-19 04:40 17.42368 106.93033 11768 ft 310 kts 311°
2026-04-19 04:40 17.43790 106.91365 11554 ft 303 kts 311°
2026-04-19 04:40 17.45171 106.89747 11241 ft 300 kts 312°
2026-04-19 04:40 17.46565 106.88117 10899 ft 299 kts 312°
2026-04-19 04:41 17.47955 106.86489 10729 ft 299 kts 312°
2026-04-19 04:41 17.49323 106.84886 10587 ft 299 kts 312°
2026-04-19 04:41 17.50709 106.83259 10465 ft 298 kts 312°
2026-04-19 04:41 17.52094 106.81632 10324 ft 298 kts 312°
2026-04-19 04:42 17.53471 106.80012 10192 ft 297 kts 312°
2026-04-19 04:42 17.54834 106.78410 10061 ft 297 kts 312°
2026-04-19 04:42 17.56210 106.76793 9917 ft 297 kts 312°
2026-04-19 04:42 17.57501 106.75083 9467 ft 299 kts 305°
2026-04-19 04:43 17.58709 106.73306 9061 ft 298 kts 306°
2026-04-19 04:43 17.59916 106.71540 8720 ft 295 kts 306°
2026-04-19 04:43 17.61104 106.69805 8371 ft 293 kts 306°
2026-04-19 04:43 17.62277 106.68094 7981 ft 292 kts 305°
2026-04-19 04:44 17.63460 106.66370 7639 ft 289 kts 305°
2026-04-19 04:44 17.64629 106.64665 7244 ft 289 kts 305°
2026-04-19 04:44 17.65791 106.62968 6975 ft 283 kts 305°
2026-04-19 04:44 17.66939 106.61290 6654 ft 281 kts 305°
2026-04-19 04:45 17.68108 106.59661 6346 ft 278 kts 311°
2026-04-19 04:45 17.69538 106.58310 5981 ft 276 kts 320°
2026-04-19 04:45 17.71011 106.57051 5594 ft 276 kts 320°
2026-04-19 04:45 17.72499 106.55777 5181 ft 277 kts 320°
2026-04-19 04:46 17.73977 106.54507 5045 ft 269 kts 320°
2026-04-19 04:46 17.75391 106.53290 5047 ft 258 kts 320°
2026-04-19 04:46 17.76689 106.52173 5044 ft 256 kts 320°
2026-04-19 04:46 17.78052 106.51001 5045 ft 256 kts 320°
2026-04-19 04:47 17.79441 106.49798 5045 ft 256 kts 319°
2026-04-19 04:47 17.80348 106.49008 5045 ft 255 kts 319°
2026-04-19 04:47 17.81687 106.47834 5046 ft 255 kts 319°
2026-04-19 04:47 17.83045 106.46626 5049 ft 255 kts 315°
2026-04-19 04:48 17.84158 106.45181 5049 ft 253 kts 298°
2026-04-19 04:48 17.84860 106.43500 5043 ft 251 kts 287°
2026-04-19 04:48 17.85430 106.41786 5048 ft 252 kts 288°
2026-04-19 04:48 17.86016 106.40055 5048 ft 251 kts 288°
2026-04-19 04:49 17.86475 106.38286 5042 ft 249 kts 275°
2026-04-19 04:49 17.86476 106.36483 5039 ft 247 kts 259°
2026-04-19 04:49 17.86138 106.34724 5046 ft 245 kts 252°
2026-04-19 04:49 17.85392 106.33167 5044 ft 241 kts 227°
2026-04-19 04:50 17.84093 106.32095 5051 ft 238 kts 202°
2026-04-19 04:50 17.82496 106.31702 5040 ft 238 kts 178°
2026-04-19 04:50 17.80887 106.32056 5042 ft 238 kts 155°
2026-04-19 04:50 17.79395 106.32821 5042 ft 239 kts 154°
2026-04-19 04:51 17.77919 106.33578 5041 ft 238 kts 154°
2026-04-19 04:51 17.76421 106.34344 5048 ft 239 kts 154°
2026-04-19 04:51 17.75407 106.34863 5045 ft 240 kts 155°
2026-04-19 04:51 17.73930 106.35616 5056 ft 235 kts 154°
2026-04-19 04:52 17.72504 106.36346 5044 ft 220 kts 155°
2026-04-19 04:52 17.71197 106.37011 5009 ft 200 kts 155°
2026-04-19 04:52 17.69952 106.37621 4741 ft 192 kts 155°
2026-04-19 04:52 17.68791 106.38181 4507 ft 180 kts 156°
2026-04-19 04:53 17.67678 106.38714 4300 ft 172 kts 156°
2026-04-19 04:53 17.66594 106.39232 4108 ft 170 kts 155°
2026-04-19 04:53 17.65525 106.39744 3794 ft 168 kts 155°
2026-04-19 04:53 17.64471 106.40252 3452 ft 169 kts 155°
2026-04-19 04:54 17.63415 106.40761 3313 ft 167 kts 155°
2026-04-19 04:54 17.62355 106.41274 3194 ft 168 kts 155°
2026-04-19 04:54 17.61301 106.41802 3117 ft 168 kts 148°
2026-04-19 04:54 17.60400 106.42571 3042 ft 168 kts 131°
2026-04-19 04:55 17.59711 106.43534 2878 ft 166 kts 125°
2026-04-19 04:55 17.59032 106.44511 2713 ft 165 kts 126°
2026-04-19 04:55 17.58352 106.45481 2560 ft 165 kts 126°
2026-04-19 04:55 17.57684 106.46432 2421 ft 157 kts 125°
2026-04-19 04:56 17.57045 106.47341 2280 ft 152 kts 125°
2026-04-19 04:56 17.56430 106.48221 2154 ft 151 kts 124°
2026-04-19 04:56 17.55818 106.49110 2021 ft 149 kts 119°
2026-04-19 04:56 17.55373 106.50094 1838 ft 148 kts 112°
2026-04-19 04:57 17.54959 106.51062 1653 ft 147 kts 112°
2026-04-19 04:57 17.54540 106.52041 1434 ft 146 kts 112°
2026-04-19 04:57 17.54126 106.53006 1258 ft 145 kts 113°
2026-04-19 04:57 17.53716 106.53966 1059 ft 143 kts 112°
2026-04-19 04:58 17.53305 106.54921 867 ft 143 kts 114°
2026-04-19 04:58 17.52896 106.55874 658 ft 143 kts 112°
2026-04-19 04:58 17.52499 106.56811 506 ft 142 kts 111°
2026-04-19 04:58 17.52086 106.57761 291 ft 141 kts 112°
2026-04-19 04:59 17.51697 106.58699 82 ft 140 kts 113°
2026-04-19 04:59 17.51335 106.59535 63 ft 105 kts 115°
2026-04-19 04:59 17.51108 106.60055 57 ft 53 kts 114°
2026-04-19 04:59 17.50992 106.60328 58 ft 18 kts 114°
2026-04-19 05:00 17.50955 106.60411 56 ft 12 kts 115°
2026-04-19 05:00 17.50909 106.60475 63 ft 10 kts 140°
2026-04-19 05:00 17.50917 106.60525 59 ft 7 kts
2026-04-19 05:00 17.50932 106.60513 64 ft 2 kts 306°
2026-04-19 05:01 17.50937 106.60471 62 ft 10 kts 275°
2026-04-19 05:01 17.50958 106.60405 59 ft 9 kts 295°
2026-04-19 05:01 17.50993 106.60327 58 ft 18 kts 295°
2026-04-19 05:01 17.51053 106.60189 53 ft 21 kts 294°
2026-04-19 05:02 17.51108 106.60058 58 ft 19 kts 295°
2026-04-19 05:02 17.51167 106.59925 61 ft 23 kts 293°
2026-04-19 05:02 17.51225 106.59783 63 ft 20 kts 294°
2026-04-19 05:02 17.51277 106.59661 67 ft 17 kts 294°
2026-04-19 05:03 17.51336 106.59532 55 ft 24 kts 292°
2026-04-19 05:03 17.51399 106.59379 68 ft 22 kts 294°
2026-04-19 05:03 17.51460 106.59237 65 ft 21 kts 294°
2026-04-19 05:03 17.51500 106.59145 57 ft 8 kts 293°
2026-04-19 05:04 17.51508 106.59095 66 ft 6 kts 264°
2026-04-19 05:04 17.51490 106.59064 59 ft 4 kts 221°
2026-04-19 05:04 17.51471 106.59053 63 ft 2 kts 206°
2026-04-19 05:04 17.51458 106.59047 60 ft 5 kts 205°
2026-04-19 05:05 17.51403 106.59025 61 ft 8 kts 187°
2026-04-19 05:05 17.51368 106.59050 62 ft 6 kts 126°
2026-04-19 05:05 17.51347 106.59080 65 ft 4 kts 137°
2026-04-19 05:05 17.51330 106.59085 65 ft 1 kts 173°
2026-04-19 05:06 17.51327 106.59085 65 ft 1 kts 176°
2026-04-19 05:06 17.51322 106.59085 66 ft 1 kts 185°
2026-04-19 05:06 17.51305 106.59079 65 ft 2 kts 199°
2026-04-19 05:06 17.51301 106.59078 69 ft 1 kts 198°
2026-04-19 05:07 17.51295 106.59075 69 ft 0 kts 202°